Location: Roanoke
(37.2710°N, 79.9420°W)
Time: 04:01:58
(UTC-05:00)

S-56A Canister/Altair - Pass Details

Date: 23 November 2019
Orbit: 633 x 2500 km, 38.9° (Epoch: 09 December)

Event Time Altitude Azimuth Distance (km) Brightness Sun altitude
Rises 22:22:47 0° 281° (W) 3,748 - -62.0°
Reaches altitude 10° 22:26:39 10° 262° (W) 2,493 - -62.6°
Maximum altitude 22:30:10 17° 223° (SW) 1,831 - -63.2°
Drops below altitude 10° 22:33:13 10° 183° (S) 2,107 - -63.7°
Sets 22:36:07 0° 161° (SSE) 2,927 - -64.2°
